TimeEDT,TemperatureF,Dew PointF,Humidity,Sea Level PressureIn,VisibilityMPH,Wind Direction,Wind SpeedMPH,Gust SpeedMPH,PrecipitationIn,Events,Conditions,WindDirDegrees,DateUTC
12:32 AM,37.4,37.4,100,30.23,1.8,Calm,Calm,-,N/A,,Clear,0,2013-03-30 04:32:00
12:37 AM,37.4,35.6,93,30.22,0.5,Calm,Calm,-,N/A,Fog,Fog,0,2013-03-30 04:37:00
12:53 AM,36.0,35.1,97,30.24,0.5,Calm,Calm,-,N/A,Fog,Fog,0,2013-03-30 04:53:00
1:53 AM,34.0,33.1,96,30.24,0.2,Calm,Calm,-,N/A,Fog,Fog,0,2013-03-30 05:53:00
2:53 AM,34.0,33.1,96,30.23,0.2,Calm,Calm,-,N/A,Fog,Fog,0,2013-03-30 06:53:00
3:53 AM,30.9,30.0,96,30.23,0.2,Calm,Calm,-,N/A,Fog,Light Freezing Fog,0,2013-03-30 07:53:00
4:53 AM,30.0,28.9,96,30.22,0.2,Calm,Calm,-,N/A,Fog,Light Freezing Fog,0,2013-03-30 08:53:00
5:53 AM,28.9,28.0,96,30.22,0.2,Calm,Calm,-,N/A,Fog,Light Freezing Fog,0,2013-03-30 09:53:00
6:53 AM,28.9,28.0,96,30.23,0.2,Calm,Calm,-,N/A,Fog,Light Freezing Fog,0,2013-03-30 10:53:00
7:53 AM,28.9,28.0,96,30.25,0.2,Calm,Calm,-,N/A,Fog,Light Freezing Fog,0,2013-03-30 11:53:00
8:26 AM,30.2,30.2,100,30.24,2.0,Calm,Calm,-,N/A,,Mostly Cloudy,0,2013-03-30 12:26:00
8:33 AM,30.2,30.2,100,30.24,0.8,Calm,Calm,-,N/A,,Mist,0,2013-03-30 12:33:00
8:53 AM,30.9,30.9,100,30.25,1.0,Calm,Calm,-,N/A,,Mist,0,2013-03-30 12:53:00
9:07 AM,33.8,33.8,100,30.22,2.0,Calm,Calm,-,N/A,,Scattered Clouds,0,2013-03-30 13:07:00
9:21 AM,35.6,35.6,100,30.22,3.0,Calm,Calm,-,N/A,,Partly Cloudy,0,2013-03-30 13:21:00
9:53 AM,39.9,37.9,93,30.22,10.0,East,5.8,-,N/A,,Clear,100,2013-03-30 13:53:00
10:53 AM,46.9,39.0,74,30.21,10.0,East,8.1,-,N/A,,Clear,80,2013-03-30 14:53:00
11:53 AM,50.0,39.0,66,30.20,10.0,SE,4.6,-,N/A,,Clear,140,2013-03-30 15:53:00
12:53 PM,53.1,37.9,57,30.18,10.0,SSE,5.8,-,N/A,,Clear,160,2013-03-30 16:53:00
1:53 PM,55.9,37.9,51,30.15,10.0,SSE,5.8,-,N/A,,Partly Cloudy,160,2013-03-30 17:53:00
2:53 PM,55.9,37.9,51,30.13,10.0,South,4.6,-,N/A,,Mostly Cloudy,180,2013-03-30 18:53:00
3:53 PM,55.9,37.9,51,30.11,10.0,South,8.1,-,N/A,,Scattered Clouds,190,2013-03-30 19:53:00
4:53 PM,55.0,37.0,51,30.09,10.0,West,4.6,-,N/A,,Clear,260,2013-03-30 20:53:00
5:53 PM,55.9,37.9,51,30.08,10.0,SSW,5.8,-,N/A,,Clear,200,2013-03-30 21:53:00
6:53 PM,55.0,37.9,53,30.06,10.0,SSW,3.5,-,N/A,,Clear,200,2013-03-30 22:53:00
7:53 PM,53.1,37.9,57,30.05,10.0,Calm,Calm,-,N/A,,Clear,0,2013-03-30 23:53:00
8:53 PM,51.1,39.0,63,30.03,10.0,Calm,Calm,-,N/A,,Clear,0,2013-03-31 00:53:00
9:53 PM,50.0,39.9,68,30.01,10.0,SE,3.5,-,N/A,,Mostly Cloudy,130,2013-03-31 01:53:00
10:53 PM,50.0,39.0,66,30.00,10.0,Calm,Calm,-,N/A,,Overcast,0,2013-03-31 02:53:00
11:53 PM,50.0,39.0,66,29.98,10.0,South,3.5,-,N/A,,Mostly Cloudy,180,2013-03-31 03:53:00